Starlink 31315

operational
NORAD ID: 58884 Int'l Des: 2024-020 Owner: SPXS Country: US Constellation: starlink
LEOCIRCULAR

About Starlink 31315

Description loading...

Live Position

Loading 3D Globe...

Upcoming Passes

Altitude History

Altitude vs Time

uPlot chart will show altitude changes over time

Two-Line Element Set

1 58884U 24020J 25353.60704714 -.00003977 00000-0 -12228-3 0 9994
2 58884 53.1616 308.4487 0002645 86.7092 273.4212 15.30170014106178
Epoch: Dec 19, 2025 • Age: 13 hours

Current Status

Altitude 474.9 km
Velocity 7.63 km/s
Sub-Earth Point 12.42°N, 178.83°E
Launch Date Jan 29, 2024
Age 1.8 years
Type internet

Technical Details

Classification Payload
Mass 730.00 kg
Dry Mass 700.00 kg
Total Mass 730.00 kg
Length 0.30 m
Diameter 4.10 m
Span 29.00 m
Shape Box + pan
Manufacturer SPXS
Bus Type Starlink V2M
Phase Status In Orbit
Owner/State SPXS/US

Large Constellations

Loading constellations...